Regional Weather Roundup
Issued by NWS Green Bay, WI

Home | Current Version | Previous Version | Text Only | Print | Product List | Glossary On
Versions: 1 2 3 4 5 6 7 8 9 10 11 12 13 14 15 16 17 18 19 20 21 22 23 24 25 26 27 28 29 30 31 32 33 34 35 36 37 38 39 40 41 42 43 44 45 46 47 48 49 50
000
ASUS43 KGRB 271211
RWRGRB

NORTH-CENTRAL AND NORTHEAST WISCONSIN REGIONAL WEATHER ROUNDUP
NATIONAL WEATHER SERVICE GREEN BAY WI
700 AM CDT WED MAY 27 2015

WIZ005-009-010>012-018-019-271300-
NORTH CENTRAL WISCONSIN

CITY           SKY/WX    TMP DP  RH WIND       PRES   REMARKS
IRONWOOD       CLOUDY    54  54 100 W7        29.79S
MANITOWISH WTR CLOUDY    53  53 100 W7        29.82R
ARBOR VITAE    DRIZZLE   55  53  94 W5        29.83R
EAGLE RIVER    LGT RAIN  53  53 100 W3        29.82R
LAND O LAKES   LGT RAIN  54  53  97 W3        29.82R
RHINELANDER    LGT RAIN  53  52  96 W6        29.83R FOG
PHILLIPS       CLOUDY    52  52 100 CALM      29.85R
ANTIGO         CLOUDY    53  53  99 W12       29.82R FOG
TOMAHAWK       LGT RAIN  52  51  96 W6        29.84R
MERRILL        LGT RAIN  54  54 100 W5        29.85R
$$

WIZ013-073-271300-
NORTHEAST WISCONSIN

CITY           SKY/WX    TMP DP  RH WIND       PRES   REMARKS
IRON MOUNTAIN  LGT RAIN  54  52  93 NW9       29.75R
MARINETTE      CLOUDY    59  55  88 NW6       29.74R
OCONTO         CLOUDY    58  58 100 W10G20    29.76R
$$

WIZ017-030-035>037-045-271300-
CENTRAL WISCONSIN

CITY           SKY/WX    TMP DP  RH WIND       PRES   REMARKS
MEDFORD        LGT RAIN  53  53  98 W8        29.86R
WAUSAU         LGT RAIN  55  53  93 NW7       29.83R
MOSINEE        CLOUDY    54  54 100 W8        29.85R
MARSHFIELD     CLOUDY    57  53  86 W10       29.86R
WISC RAPIDS    CLOUDY    57  54  89 NW8       29.88R
STEVENS POINT  CLOUDY    55  53  94 W6G17     29.86R
WAUPACA        CLOUDY    61  58  88 W12G17    29.84R
SHAWANO        DRIZZLE   59  56  91 W7        29.80R
CLINTONVILLE   CLOUDY    59  55  88 W10G16    29.81R
$$

WIZ038-039-048-051-271300-
FOX VALLEY

CITY           SKY/WX    TMP DP  RH WIND       PRES   REMARKS
NWS GREEN BAY  CLOUDY    61  56  83 W15       29.79R
APPLETON       NOT AVBL
OSHKOSH        CLOUDY    62  56  80 W7        29.83R
FOND DU LAC    PTSUNNY   62  57  83 SW9       29.84R
$$

WIZ022-050-052-271300-
EAST CENTRAL WISCONSIN

CITY           SKY/WX    TMP DP  RH WIND       PRES   REMARKS
STURGEON BAY   CLOUDY    61  55  82 SW10      29.78R
MANITOWOC      CLOUDY    63  58  83 W10G20    29.80R
SHEBOYGAN      MOSUNNY   63  57  81 SW15      29.82R
$$

LMZ563-521-522-541>543-271300-
LAKESHORE

STATION/POSITION TIME  TEMP    WIND        PRES    VSBY  WAVE
                       AIR SEA DIR/SP/G                  HT/PER
                 (UTC) (F)     (DEG/KT/KT) (MB)    (MI)  (FT/S)
SHEBOYGAN LKSHOR 1200   63     240/ 15/ 17 1010.2R
KEWAUNEE LKSHORE 1100   63     250/ 12/ 17 1006.9R
ALGOMA MARINA    1138          280/ 10/ 19   N/A
NORTHPORT PIER   1100   54     290/  6/ 11 1006.1R
N MID LAKE BUOY  1150   44 37  250/ 14/ 16 1006.5R         5/ 6
SISTER BAY LKSHO 1103   54     310/  8/  9   N/A
CHAMBERS ISLAND  1100   57     230/  5/ 10 1006.4R
MENOMINEE LKSHOR 1100   61     260/  6/ 10 1006.9R
$$


USA.gov is the U.S. government's official web portal to all federal, state and local government web resources and services.